| time (UTC) | temp C | wind direction | speed KPH | gust KPH | rain 1hr cm | rain 24hr cm | rain mn cm | humidity % | barometer mb |
| 20260504201135 | 21 | 323 | 3.2 | 9.7 | 0.00 | 0.00 | 0.00 | 48 | 1010.0 |
| 20260504200632 | 21 | 310 | 6.4 | 11.3 | 0.00 | 0.00 | 0.00 | 48 | 1010.1 |
| 20260504200128 | 21 | 261 | 4.8 | 9.7 | 0.00 | 0.00 | 0.00 | 49 | 1010.2 |
| 20260504195624 | 21 | 280 | 4.8 | 20.9 | 0.00 | 0.00 | 0.00 | 49 | 1010.3 |
| 20260504195121 | 22 | 314 | 8.0 | 11.3 | 0.00 | 0.00 | 0.00 | 48 | 1010.1 |
| 20260504194618 | 21 | 234 | 8.0 | 11.3 | 0.00 | 0.00 | 0.00 | 47 | 1010.1 |
| 20260504194114 | 22 | 258 | 4.8 | 11.3 | 0.00 | 0.00 | 0.00 | 48 | 1010.2 |
| 20260504193610 | 22 | 312 | 12.9 | 22.5 | 0.00 | 0.00 | 0.00 | 49 | 1010.2 |
| 20260504193109 | 22 | 314 | 6.4 | 16.1 | 0.00 | 0.00 | 0.00 | 48 | 1010.3 |
| 20260504192606 | 22 | 257 | 6.4 | 12.9 | 0.00 | 0.00 | 0.00 | 46 | 1010.2 |
| 20260504192104 | 22 | 264 | 12.9 | 20.9 | 0.00 | 0.00 | 0.00 | 47 | 1010.5 |
| 20260504191603 | 22 | 274 | 11.3 | 14.5 | 0.00 | 0.00 | 0.00 | 50 | 1010.4 |
| 20260504191058 | 21 | 166 | 1.6 | 12.9 | 0.00 | 0.00 | 0.00 | 46 | 1010.6 |
| 20260504190554 | 21 | 299 | 11.3 | 16.1 | 0.00 | 0.00 | 0.00 | 47 | 1010.4 |
| 20260504190050 | 21 | 155 | 3.2 | 9.7 | 0.00 | 0.00 | 0.00 | 45 | 1010.3 |
| 20260504185548 | 22 | 194 | 11.3 | 22.5 | 0.00 | 0.00 | 0.00 | 45 | 1010.3 |
| 20260504185044 | 22 | 221 | 3.2 | 16.1 | 0.00 | 0.00 | 0.00 | 43 | 1010.4 |
| 20260504184539 | 22 | 311 | 6.4 | 22.5 | 0.00 | 0.00 | 0.00 | 47 | 1010.3 |
| 20260504184035 | 21 | 311 | 6.4 | 20.9 | 0.00 | 0.00 | 0.00 | 47 | 1010.2 |
| 20260504183532 | 21 | 2 | 4.8 | 14.5 | 0.00 | 0.00 | 0.00 | 48 | 1010.3 |
| 20260504183030 | 21 | 273 | 8.0 | 16.1 | 0.00 | 0.00 | 0.00 | 48 | 1010.6 |
| 20260504182526 | 21 | 315 | 22.5 | 29.0 | 0.00 | 0.00 | 0.00 | 46 | 1010.4 |
| 20260504182024 | 21 | 292 | 11.3 | 27.4 | 0.00 | 0.00 | 0.00 | 50 | 1010.5 |
| 20260504181521 | 21 | 187 | 6.4 | 11.3 | 0.00 | 0.00 | 0.00 | 48 | 1010.5 |
| 20260504181020 | 21 | 256 | 4.8 | 17.7 | 0.00 | 0.00 | 0.00 | 46 | 1010.5 |
| 20260504180518 | 21 | 309 | 11.3 | 37.0 | 0.00 | 0.00 | 0.00 | 48 | 1010.7 |
| 20260504180017 | 21 | 187 | 8.0 | 12.9 | 0.00 | 0.00 | 0.00 | 48 | 1010.9 |
| 20260504175513 | 20 | 304 | 17.7 | 22.5 | 0.00 | 0.00 | 0.00 | 50 | 1010.8 |
| 20260504175010 | 20 | 214 | 8.0 | 14.5 | 0.00 | 0.00 | 0.00 | 49 | 1011.1 |
| 20260504174508 | 20 | 306 | 6.4 | 14.5 | 0.00 | 0.00 | 0.00 | 48 | 1011.1 |
| 20260504174005 | 20 | 269 | 3.2 | 20.9 | 0.00 | 0.00 | 0.00 | 48 | 1011.3 |
| 20260504173501 | 20 | 261 | 9.7 | 25.7 | 0.00 | 0.00 | 0.00 | 52 | 1011.2 |
| 20260504172959 | 20 | 311 | 20.9 | 25.7 | 0.00 | 0.00 | 0.00 | 51 | 1011.3 |
| 20260504172455 | 20 | 312 | 6.4 | 24.1 | 0.00 | 0.00 | 0.00 | 50 | 1011.3 |
| 20260504171951 | 20 | 314 | 14.5 | 20.9 | 0.00 | 0.00 | 0.00 | 52 | 1011.4 |
| 20260504160135 | 17 | 295 | 6.4 | 11.3 | 0.00 | 0.00 | 0.00 | 56 | 1012.9 |
| 20260504151102 | 16 | 177 | 4.8 | 14.5 | 0.00 | 0.00 | 0.00 | 56 | 1013.5 |
| 20260504150601 | 17 | 331 | 22.5 | 24.1 | 0.00 | 0.00 | 0.00 | 57 | 1013.5 |
| 20260504141026 | 16 | 309 | 12.9 | 27.4 | 0.00 | 0.00 | 0.00 | 51 | 1013.6 |
| 20260504140523 | 16 | 297 | 4.8 | 16.1 | 0.00 | 0.00 | 0.00 | 50 | 1013.4 |
| 20260504130447 | 14 | 262 | 8.0 | 11.3 | 0.00 | 0.00 | 0.00 | 55 | 1013.4 |
| 20260504110334 | 6 | 127 | 1.6 | 3.2 | 0.00 | 0.00 | 0.00 | 94 | 1013.8 |
| 20260504100252 | 7 | 341 | 0.0 | 0.0 | 0.00 | 0.00 | 0.00 | 90 | 1014.0 |
| 20260504081645 | 8 | 95 | 0.0 | 0.0 | 0.00 | 0.00 | 0.00 | 87 | 1014.7 |
| 20260504081141 | 8 | 95 | 0.0 | 0.0 | 0.00 | 0.00 | 0.00 | 87 | 1014.7 |
| 20260504080638 | 8 | 95 | 0.0 | 0.0 | 0.00 | 0.00 | 0.00 | 87 | 1014.7 |
| 20260504080134 | 8 | 95 | 0.0 | 0.0 | 0.00 | 0.00 | 0.00 | 87 | 1014.7 |
| 20260504050451 | 7 | 299 | 0.0 | 0.0 | 0.00 | 0.00 | 0.00 | 85 | 1015.4 |
| 20260504045948 | 7 | 299 | 0.0 | 0.0 | 0.00 | 0.00 | 0.00 | 85 | 1015.4 |
| 20260504045443 | 7 | 299 | 0.0 | 0.0 | 0.00 | 0.00 | 0.00 | 84 | 1015.4 |
| 20260504044940 | 7 | 299 | 0.0 | 0.0 | 0.00 | 0.00 | 0.00 | 83 | 1015.2 |
| 20260504044438 | 8 | 299 | 0.0 | 0.0 | 0.00 | 0.00 | 0.00 | 84 | 1015.3 |
| 20260504043935 | 8 | 299 | 0.0 | 0.0 | 0.00 | 0.00 | 0.00 | 85 | 1015.5 |
| 20260504043431 | 8 | 299 | 0.0 | 0.0 | 0.00 | 0.00 | 0.00 | 85 | 1015.4 |
| 20260504042929 | 7 | 299 | 0.0 | 0.0 | 0.00 | 0.00 | 0.00 | 85 | 1015.7 |
| 20260504042426 | 8 | 299 | 0.0 | 0.0 | 0.00 | 0.00 | 0.00 | 86 | 1015.7 |
| 20260504041922 | 8 | 299 | 0.0 | 0.0 | 0.00 | 0.00 | 0.00 | 85 | 1015.7 |
| 20260504041418 | 8 | 299 | 0.0 | 0.0 | 0.00 | 0.00 | 0.00 | 85 | 1015.6 |
| 20260504040914 | 8 | 299 | 0.0 | 0.0 | 0.00 | 0.00 | 0.00 | 85 | 1015.6 |
| 20260504040412 | 8 | 299 | 0.0 | 0.0 | 0.00 | 0.00 | 0.00 | 83 | 1015.5 |
| 20260504035907 | 8 | 299 | 0.0 | 0.0 | 0.00 | 0.00 | 0.00 | 82 | 1015.5 |
| 20260504035405 | 8 | 299 | 0.0 | 0.0 | 0.00 | 0.00 | 0.00 | 80 | 1015.6 |
| 20260504034901 | 8 | 299 | 0.0 | 0.0 | 0.00 | 0.00 | 0.00 | 79 | 1015.6 |
| 20260504034359 | 8 | 299 | 0.0 | 1.6 | 0.00 | 0.00 | 0.00 | 81 | 1015.6 |
| 20260504033855 | 8 | 299 | 0.0 | 0.0 | 0.00 | 0.00 | 0.00 | 83 | 1015.7 |
| 20260504033354 | 8 | 244 | 0.0 | 1.6 | 0.00 | 0.00 | 0.00 | 76 | 1015.8 |
| 20260504032850 | 8 | 245 | 0.0 | 0.0 | 0.00 | 0.00 | 0.00 | 78 | 1015.6 |
| 20260504032347 | 8 | 245 | 0.0 | 0.0 | 0.00 | 0.00 | 0.00 | 79 | 1015.5 |
| 20260504031844 | 8 | 245 | 0.0 | 0.0 | 0.00 | 0.00 | 0.00 | 78 | 1015.5 |
| 20260504031341 | 8 | 245 | 0.0 | 0.0 | 0.00 | 0.00 | 0.00 | 76 | 1015.8 |
| 20260504030837 | 8 | 245 | 0.0 | 0.0 | 0.00 | 0.00 | 0.00 | 76 | 1015.5 |
| 20260504030335 | 8 | 245 | 0.0 | 0.0 | 0.00 | 0.00 | 0.00 | 77 | 1015.6 |
| 20260504025831 | 8 | 245 | 0.0 | 0.0 | 0.00 | 0.00 | 0.00 | 80 | 1015.6 |
| 20260504025328 | 9 | 245 | 0.0 | 0.0 | 0.00 | 0.00 | 0.00 | 79 | 1015.8 |
| 20260504024825 | 9 | 245 | 0.0 | 0.0 | 0.00 | 0.00 | 0.00 | 78 | 1015.7 |
| 20260504024321 | 9 | 245 | 0.0 | 0.0 | 0.00 | 0.00 | 0.00 | 75 | 1015.8 |
| 20260504023818 | 9 | 245 | 0.0 | 0.0 | 0.00 | 0.00 | 0.00 | 76 | 1015.8 |
| 20260504023315 | 9 | 245 | 0.0 | 0.0 | 0.00 | 0.00 | 0.00 | 76 | 1015.6 |
| 20260504022810 | 9 | 245 | 0.0 | 0.0 | 0.00 | 0.00 | 0.00 | 78 | 1015.7 |
| 20260504022307 | 9 | 245 | 0.0 | 0.0 | 0.00 | 0.00 | 0.00 | 80 | 1015.5 |
| 20260504021803 | 9 | 245 | 0.0 | 0.0 | 0.00 | 0.00 | 0.00 | 80 | 1015.6 |
| 20260504021301 | 9 | 245 | 0.0 | 1.6 | 0.00 | 0.00 | 0.00 | 81 | 1015.7 |
| 20260504020758 | 9 | 244 | 0.0 | 0.0 | 0.00 | 0.00 | 0.00 | 76 | 1015.5 |
| 20260504020255 | 9 | 244 | 0.0 | 0.0 | 0.00 | 0.00 | 0.00 | 75 | 1015.6 |
| 20260504015750 | 9 | 244 | 0.0 | 0.0 | 0.00 | 0.00 | 0.00 | 76 | 1015.5 |
| 20260504015247 | 9 | 244 | 0.0 | 0.0 | 0.00 | 0.00 | 0.00 | 75 | 1015.6 |
| 20260504014743 | 9 | 244 | 0.0 | 0.0 | 0.00 | 0.00 | 0.00 | 75 | 1015.6 |
| 20260504014240 | 9 | 244 | 0.0 | 0.0 | 0.00 | 0.00 | 0.00 | 78 | 1015.7 |
| 20260504013737 | 10 | 244 | 0.0 | 0.0 | 0.00 | 0.00 | 0.00 | 79 | 1015.7 |
| 20260504013235 | 10 | 244 | 0.0 | 0.0 | 0.00 | 0.00 | 0.00 | 75 | 1015.5 |
| 20260504012731 | 10 | 244 | 0.0 | 0.0 | 0.00 | 0.00 | 0.00 | 73 | 1015.5 |
| 20260504012229 | 10 | 244 | 0.0 | 0.0 | 0.00 | 0.00 | 0.00 | 71 | 1015.6 |
| 20260504011726 | 10 | 244 | 0.0 | 0.0 | 0.00 | 0.00 | 0.00 | 67 | 1015.6 |
| 20260504011223 | 10 | 244 | 0.0 | 0.0 | 0.00 | 0.00 | 0.00 | 66 | 1015.6 |
| 20260504010719 | 10 | 244 | 0.0 | 0.0 | 0.00 | 0.00 | 0.00 | 66 | 1015.4 |
| 20260504010215 | 11 | 244 | 0.0 | 0.0 | 0.00 | 0.00 | 0.00 | 70 | 1015.6 |
| 20260504005711 | 11 | 244 | 0.0 | 0.0 | 0.00 | 0.00 | 0.00 | 65 | 1015.6 |
| 20260504005209 | 11 | 244 | 0.0 | 0.0 | 0.00 | 0.00 | 0.00 | 64 | 1015.7 |
| 20260504004706 | 11 | 244 | 0.0 | 0.0 | 0.00 | 0.00 | 0.00 | 64 | 1015.6 |
| 20260504004203 | 11 | 244 | 0.0 | 0.0 | 0.00 | 0.00 | 0.00 | 66 | 1015.7 |
| 20260504003700 | 11 | 244 | 0.0 | 0.0 | 0.00 | 0.00 | 0.00 | 65 | 1015.5 |
| 20260504003156 | 11 | 244 | 0.0 | 1.6 | 0.00 | 0.00 | 0.00 | 62 | 1015.4 |
| 20260504002653 | 11 | 244 | 1.6 | 1.6 | 0.00 | 0.00 | 0.00 | 60 | 1015.4 |
| 20260504002150 | 11 | 244 | 0.0 | 1.6 | 0.00 | 0.00 | 0.00 | 59 | 1015.5 |
| 20260504001648 | 12 | 244 | 1.6 | 3.2 | 0.00 | 0.00 | 0.00 | 56 | 1015.3 |
| 20260504001144 | 13 | 261 | 0.0 | 1.6 | 0.00 | 0.00 | 0.00 | 52 | 1015.3 |
| 20260504000641 | 13 | 261 | 1.6 | 3.2 | 0.00 | 0.00 | 0.00 | 41 | 1015.4 |
| 20260504000139 | 13 | 250 | 3.2 | 3.2 | 0.00 | 0.00 | 0.00 | 37 | 1015.4 |
| 20260503235637 | 13 | 279 | 3.2 | 4.8 | 0.00 | 0.00 | 0.00 | 37 | 1015.2 |
| 20260503235133 | 14 | 260 | 1.6 | 4.8 | 0.00 | 0.00 | 0.00 | 37 | 1015.3 |
| 20260503234631 | 14 | 246 | 3.2 | 6.4 | 0.00 | 0.00 | 0.00 | 36 | 1015.5 |
| 20260503234129 | 14 | 272 | 3.2 | 4.8 | 0.00 | 0.00 | 0.00 | 35 | 1015.5 |
| 20260503233626 | 14 | 250 | 1.6 | 4.8 | 0.00 | 0.00 | 0.00 | 38 | 1015.5 |
| 20260503233121 | 14 | 257 | 1.6 | 3.2 | 0.00 | 0.00 | 0.00 | 37 | 1015.6 |
| 20260503232619 | 14 | 251 | 1.6 | 4.8 | 0.00 | 0.00 | 0.00 | 37 | 1015.5 |
| 20260503232116 | 14 | 244 | 1.6 | 3.2 | 0.00 | 0.00 | 0.00 | 36 | 1015.5 |
| 20260503231614 | 14 | 263 | 3.2 | 6.4 | 0.00 | 0.00 | 0.00 | 37 | 1015.7 |
| 20260503231111 | 15 | 263 | 6.4 | 11.3 | 0.00 | 0.00 | 0.00 | 35 | 1015.6 |
| 20260503230608 | 15 | 231 | 6.4 | 20.9 | 0.00 | 0.00 | 0.00 | 36 | 1015.8 |
| 20260503230105 | 15 | 291 | 3.2 | 4.8 | 0.00 | 0.00 | 0.00 | 34 | 1015.7 |
| 20260503225603 | 15 | 298 | 3.2 | 11.3 | 0.00 | 0.00 | 0.00 | 33 | 1015.8 |
| 20260503225057 | 15 | 295 | 4.8 | 11.3 | 0.00 | 0.00 | 0.00 | 38 | 1015.7 |
| 20260503224555 | 15 | 223 | 6.4 | 9.7 | 0.00 | 0.00 | 0.00 | 33 | 1015.8 |
| 20260503224053 | 16 | 244 | 14.5 | 16.1 | 0.00 | 0.00 | 0.00 | 33 | 1015.9 |
| 20260503223550 | 16 | 313 | 9.7 | 11.3 | 0.00 | 0.00 | 0.00 | 33 | 1015.8 |
| 20260503223045 | 16 | 225 | 3.2 | 11.3 | 0.00 | 0.00 | 0.00 | 34 | 1015.7 |
| 20260503222544 | 16 | 309 | 8.0 | 11.3 | 0.00 | 0.00 | 0.00 | 37 | 1015.8 |
| 20260503222041 | 16 | 312 | 9.7 | 20.9 | 0.00 | 0.00 | 0.00 | 32 | 1015.9 |
| 20260503221539 | 16 | 302 | 9.7 | 14.5 | 0.00 | 0.00 | 0.00 | 34 | 1016.0 |
| 20260503221037 | 16 | 198 | 4.8 | 14.5 | 0.00 | 0.00 | 0.00 | 34 | 1015.8 |
| 20260503220533 | 16 | 167 | 1.6 | 6.4 | 0.00 | 0.00 | 0.00 | 32 | 1015.8 |
| 20260503220030 | 16 | 267 | 8.0 | 17.7 | 0.00 | 0.00 | 0.00 | 37 | 1015.9 |
| 20260503215527 | 16 | 312 | 6.4 | 12.9 | 0.00 | 0.00 | 0.00 | 35 | 1015.9 |
| 20260503215024 | 16 | 313 | 8.0 | 11.3 | 0.00 | 0.00 | 0.00 | 34 | 1015.9 |
| 20260503214522 | 16 | 317 | 4.8 | 9.7 | 0.00 | 0.00 | 0.00 | 37 | 1015.8 |
| 20260503214018 | 16 | 181 | 8.0 | 11.3 | 0.00 | 0.00 | 0.00 | 30 | 1015.9 |
| 20260503213517 | 16 | 223 | 4.8 | 11.3 | 0.00 | 0.00 | 0.00 | 33 | 1015.7 |
| 20260503213013 | 16 | 330 | 3.2 | 17.7 | 0.00 | 0.00 | 0.00 | 32 | 1015.8 |
| 20260503212511 | 16 | 170 | 8.0 | 11.3 | 0.00 | 0.00 | 0.00 | 33 | 1015.6 |
| 20260503212008 | 16 | 270 | 3.2 | 9.7 | 0.00 | 0.00 | 0.00 | 31 | 1015.8 |
| 20260503211505 | 16 | 313 | 9.7 | 22.5 | 0.00 | 0.00 | 0.00 | 34 | 1015.8 |
| 20260503211000 | 16 | 266 | 3.2 | 6.4 | 0.00 | 0.00 | 0.00 | 32 | 1015.8 |
| 20260503210457 | 15 | 310 | 12.9 | 14.5 | 0.00 | 0.00 | 0.00 | 36 | 1015.8 |
| 20260503205951 | 16 | 288 | 1.6 | 4.8 | 0.00 | 0.00 | 0.00 | 34 | 1016.0 |
| 20260503205449 | 15 | 307 | 1.6 | 12.9 | 0.00 | 0.00 | 0.00 | 38 | 1015.9 |
| 20260503204945 | 16 | 310 | 9.7 | 24.1 | 0.00 | 0.00 | 0.00 | 33 | 1015.8 |
| 20260503204443 | 16 | 314 | 8.0 | 11.3 | 0.00 | 0.00 | 0.00 | 37 | 1015.9 |
| 20260503203939 | 15 | 313 | 6.4 | 16.1 | 0.00 | 0.00 | 0.00 | 38 | 1016.0 |
| 20260503203437 | 15 | 309 | 4.8 | 6.4 | 0.00 | 0.00 | 0.00 | 36 | 1016.2 |
| 20260503202933 | 15 | 250 | 9.7 | 16.1 | 0.00 | 0.00 | 0.00 | 34 | 1016.1 |
| 20260503202432 | 16 | 319 | 1.6 | 9.7 | 0.00 | 0.00 | 0.00 | 33 | 1016.4 |
| 20260503201930 | 15 | 312 | 8.0 | 17.7 | 0.00 | 0.00 | 0.00 | 34 | 1016.5 |
| 20260503201426 | 15 | 324 | 6.4 | 14.5 | 0.00 | 0.00 | 0.00 | 34 | 1016.5 |